Flag for Poland Weather past 2 weeks in Dąbrowa Górnicza, Poland

Now
63 °F

Broken clouds.


Feels Like: 63 °F
Forecast: 59 / 71 °F
Wind: 7 mph from Northeast

Location: Katowice Airport

Current Time: Sep 1, 2014 at 2:59:54 PM

Latest Report: Sep 1, 2014 at 2:30 PM


Visibility: 5 mi

Pressure: 29.95 "Hg

Humidity: 94%

Dew point: 61 °F

Location of Dąbrowa GórniczaLocation

Historic Weather in Dąbrowa Górnicza — Graph

°F

Dąbrowa Górnicza temperature yesterday

Maximum temperature yesterday: 73 °F (at 3:30 PM)
Minimum temperature yesterday: 54 °F (at 4:30 AM)
Average temperature yesterday: 62 °F

Past Weeks' High & Low Weather Summary

 TemperatureHumidityPressure
High73 °F (Aug 18, 1:00 PM)100% (Aug 20, 12:30 AM)30.09 "Hg (Aug 20, 12:30 AM)
Low43 °F (Aug 22, 4:30 AM)38% (Aug 29, 4:30 PM)29.74 "Hg (Aug 26, 12:00 PM)
Average59 °F77%29.96 "Hg
* Reported Aug 17 1:00 PM — Sep 1 1:30 PM, Dąbrowa Górnicza, Weather by CustomWeather, © 2014

Note: Actual official high and low records may vary slightly from our data, if they occured in-between our weather recording intervals... More about our weather records

Advertising

Dąbrowa Górnicza weather history for previous 24 hours

 ConditionsComfort  
Time TempWeatherWind HumidityBarometerVisibility
1:30 PM
Sep 1
63 °FBroken clouds.6 mph94%29.95 "Hg5 mi
1:00 PM63 °FBroken clouds.8 mph94%29.95 "Hg5 mi
12:30 PM61 °FDrizzle. Fog.7 mph100%29.95 "Hg2 mi
12:00 PM61 °FDrizzle. Fog.5 mph94%29.95 "Hg1 mi
11:30 AM61 °FFog.6 mph94%29.95 "Hg2 mi
11:00 AM61 °FFog.6 mph94%29.95 "Hg3 mi
10:30 AM61 °FBroken clouds.6 mph94%29.92 "Hg4 mi
10:00 AM59 °FCloudy.6 mph100%29.92 "Hg4 mi
9:30 AM61 °FMostly cloudy.6 mph94%29.92 "Hg4 mi
9:00 AM59 °FMostly cloudy.6 mph100%29.92 "Hg4 mi
8:30 AM59 °FFog.7 mph100%29.92 "Hg3 mi
8:00 AM59 °FFog.3 mph100%29.89 "Hg1 mi
7:30 AM59 °FFog.5 mph94%29.89 "Hg1 mi
7:00 AM57 °FFog.3 mph100%29.89 "Hg1 mi
6:30 AM57 °FFog.3 mph100%29.89 "Hg1 mi
6:00 AM57 °FFog.No wind100%29.89 "Hg2 mi
5:30 AM57 °FFog.3 mph100%29.89 "Hg2 mi
5:00 AM57 °FFog.3 mph100%29.89 "Hg1 mi
4:30 AM57 °FFog.3 mph100%29.89 "Hg1 mi
4:00 AM57 °FFog.3 mph100%29.86 "Hg1 mi
3:30 AM57 °FFog.2 mph100%29.86 "Hg2 mi
3:00 AM57 °FFog.2 mph100%29.86 "Hg1 mi
2:30 AM59 °FFog.No wind94%29.86 "Hg4 mi
2:00 AM59 °FClear.2 mph94%29.86 "Hg10 mi
1:30 AM59 °FClear.2 mph94%29.86 "Hg10 mi
1:00 AM59 °FPassing clouds.3 mph100%29.86 "HgN/A
12:30 AM59 °FPassing clouds.5 mph100%29.86 "HgN/A
12:00 AM59 °FSprinkles. Passing clouds.3 mph100%29.86 "Hg5 mi
11:30 PM
Aug 31
59 °FSprinkles. Partly cloudy.5 mph100%29.89 "Hg3 mi
11:00 PM59 °FRain showers. Partly cloudy.5 mph100%29.89 "Hg1 mi
10:30 PM59 °FThundershowers. Partly cloudy.12 mph100%29.89 "Hg4 mi
10:00 PM59 °FThundershowers. Passing clouds.8 mph100%29.86 "HgN/A
9:30 PM59 °FThundershowers. Passing clouds.8 mph100%29.86 "Hg5 mi
9:00 PM61 °FThundershowers. Passing clouds.5 mph94%29.89 "Hg4 mi
8:30 PM59 °FThundershowers. Scattered clouds.6 mph100%29.89 "Hg4 mi
8:00 PM61 °FSprinkles. Scattered clouds.1 mph94%29.89 "HgN/A
7:30 PM61 °FSprinkles. Scattered clouds.2 mph94%29.89 "HgN/A
7:00 PM61 °FSprinkles. Passing clouds.2 mph94%29.86 "HgN/A
6:30 PM61 °FPassing clouds.2 mph94%29.86 "HgN/A
6:00 PM61 °FSprinkles. Passing clouds.3 mph94%29.89 "HgN/A
5:30 PM61 °FSprinkles. Passing clouds.7 mph94%29.89 "HgN/A
5:00 PM64 °FThundershowers. Scattered clouds.10 mph88%29.89 "HgN/A
4:30 PM72 °FPassing clouds.5 mph57%29.89 "HgN/A
4:00 PM72 °FPassing clouds.7 mph57%29.89 "HgN/A
3:30 PM73 °FScattered clouds.6 mph53%29.89 "HgN/A
3:00 PM72 °FScattered clouds.6 mph65%29.92 "HgN/A
2:30 PM72 °FScattered clouds.7 mph61%29.92 "HgN/A
2:00 PM72 °FScattered clouds.3 mph65%29.92 "HgN/A
Weather by CustomWeather, © 2014

See weather overviewHow to use our weather pages